Regional Weather Roundup
Issued by NWS

Home | Current Version | Previous Version | Graphics & Text | Print | Product List | Glossary On
Versions: 1 2 3 4 5 6 7 8 9 10 11 12 13 14 15 16 17 18 19 20 21 22 23 24 25 26 27 28 29 30 31 32 33 34 35 36 37 38 39 40 41 42 43 44 45 46 47 48 49 50
703
ASUS45 KCYS 200810
RWRWY

WYOMING REGIONAL WEATHER ROUNDUP
NATIONAL WEATHER SERVICE CHEYENNE WY
100 AM MST FRI JAN 20 2017

NOTE:  "FAIR" INDICATES FEW OR NO CLOUDS BELOW 12,000 FEET
WITH NO SIGNIFICANT WEATHER AND/OR OBSTRUCTIONS TO VISIBILITY.

WYZ001-200900-
YELLOWSTONE NATIONAL PARK

CITY           SKY/WX    TMP DP  RH WIND       PRES   REMARKS
LK YELLOWSTONE   N/A     22  19  89 VRB3      29.59R
W YELLOWSTONE  NOT AVBL

$$
WYZ002>013-054>058-071-098>099-200900-
NORTHERN WYOMING

CITY           SKY/WX    TMP DP  RH WIND       PRES   REMARKS
JACKSON        CLOUDY    27  25  93 SW8       29.58F WCI  18
CODY           MOCLDY    36  22  56 W5        29.50S WCI  32
GREYBULL       CLOUDY    24  19  81 CALM      29.51S
WORLAND        CLOUDY    26  23  88 NW3       29.51F
SHERIDAN       CLOUDY    37  27  67 W15       29.48F WCI  28
BUFFALO        CLOUDY    37  22  54 NW9       29.47F WCI  30
GILLETTE       FAIR      30  23  75 W12       29.45F WCI  20
HULETT         FAIR      27  21  80 SW5       29.46S WCI  21
NEWCASTLE      FAIR      23  19  86 N10       29.44F WCI  12

$$
WYZ014>020-022>026-101>103-200900-
CENTRAL WYOMING

CITY           SKY/WX    TMP DP  RH WIND       PRES   REMARKS
BIG PINEY      MOCLDY     9   7  92 E6        29.59F WCI  -1
PINEDALE       CLOUDY    10   9  92 NW3       29.59S
DUBOIS         NOT AVBL
LANDER         MOCLDY    22  14  71 CALM      29.51F
RIVERTON       CLOUDY    19  13  77 CALM      29.52F
CASPER         CLOUDY    31  27  85 SW20      29.51S WCI  19
DOUGLAS        FAIR      28  21  75 W9        29.48R WCI  19

$$
WYZ021-027>030-104>119-200900-
SOUTHERN WYOMING

CITY           SKY/WX    TMP DP  RH WIND       PRES   REMARKS
EVANSTON       FOG       21  18  88 W10       29.60F VSB 1/4 WCI  10
ROCK SPRINGS   CLOUDY    22  20  92 W12       29.58F WCI  10
RAWLINS        LGT SNOW  27  23  85 SW14      29.56F FOG     WCI  16
LARAMIE        FAIR      22  16  78 W10       29.50F WCI  11
CHEYENNE       FAIR      33  20  58 W10       29.47F WCI  25
TORRINGTON     FAIR      29  21  72 W6        29.46F WCI  23

$$




USA.gov is the U.S. government's official web portal to all federal, state and local government web resources and services.